Flag for Germany Weather past 2 weeks in Jülich, North Rhine-Westphalia, Germany

Now
54 °F

Sunny.


Feels Like: 54 °F
Forecast: 50 / 74 °F
Wind: 1 mph from Northeast

Location: Geilenkirchen Airport


UV Index: 3 (Moderate)

Visibility: 10 mi


Pressure: 30.09 "Hg

Humidity: 94%

Dew point: 52 °F

Location of JülichLocation

Historic Weather in Jülich

°F

Jülich temperature yesterday

Maximum temperature yesterday: 72 °F (at 5:50 PM)
Minimum temperature yesterday: 46 °F (at 3:50 AM)
Average temperature yesterday: 59 °F

Past Weeks' High & Low Weather Summary

 TemperatureHumidityPressure
High72 °F (Apr 23, 5:50 PM)100% (Apr 9, 6:50 AM)30.45 "Hg (Apr 9, 6:50 AM)
Low30 °F (Apr 16, 5:50 AM)0% (Apr 18, 7:50 AM)29.62 "Hg (Apr 21, 1:50 PM)
Average52 °F69%30.09 "Hg
* Reported Apr 9 6:50 AM — Apr 24 6:50 AM, Jülich, Weather by CustomWeather, © 2014

Note: Actual official high and low records may vary slightly from our data, if they occured in-between our weather recording intervals... More about our weather records

Advertising

Historic Weather Conditions — Data for Previous 24 hours

 ConditionsComfort  
Time TempWeatherWind HumidityBarometerVisibility
6:50 AM
Apr 24
50 °FClear.No wind94%30.09 "Hg10 mi
5:50 AM46 °FClear.No wind100%30.09 "Hg10 mi
4:50 AM46 °FClear.No wind93%30.09 "Hg10 mi
3:50 AM48 °FClear.3 mph100%30.09 "Hg10 mi
2:50 AM50 °FClear.5 mph94%30.09 "Hg10 mi
1:50 AM52 °FClear.5 mph82%30.09 "Hg10 mi
12:50 AM54 °FClear.6 mph82%30.09 "Hg10 mi
11:50 PM
Apr 23
55 °FClear.1 mph77%30.09 "Hg10 mi
10:50 PM57 °FClear.2 mph72%30.09 "Hg10 mi
9:50 PM59 °FPassing clouds.No wind68%30.09 "HgN/A
8:50 PM61 °FScattered clouds.No wind68%30.09 "HgN/A
7:50 PM64 °FSunny.3 mph56%30.07 "Hg10 mi
6:50 PM72 °FScattered clouds.5 mph41%30.07 "HgN/A
5:50 PM72 °FSunny.7 mph44%30.07 "Hg10 mi
4:50 PM68 °FSunny.6 mph49%30.07 "Hg10 mi
3:50 PM68 °FSunny.3 mph53%30.09 "Hg10 mi
2:50 PM68 °FScattered clouds.6 mph53%30.09 "HgN/A
1:50 PM66 °FScattered clouds.5 mph56%30.09 "HgN/A
12:50 PM66 °FScattered clouds.2 mph56%30.09 "HgN/A
11:50 AM64 °FPassing clouds.2 mph60%30.12 "HgN/A
10:50 AM63 °FPassing clouds.2 mph64%30.12 "HgN/A
9:50 AM57 °FPartly sunny.5 mph82%30.09 "HgN/A
8:50 AM55 °FPartly sunny.1 mph88%30.09 "HgN/A
Weather by CustomWeather, © 2014

See weather overview